Weather in Zolotarevka

Russia / Stavropol Krai     45°38′27″N   42°32′35″E
temp.,
°C
wind,
m/s
gust,
m/s
humid.,
%
clouds,
%
prec.,
mm/h
press.,
hPa
HPBL,
m
17 april, sat
sat1700:00+10ese3594100 1.2 1019113
03:00+11wsw2295100 1.8 101950
06:00+11sw2395100 1.9 101980
09:00+10w4895100 6.9 1021440
12:00+12wsw4687100 3.9 1022571
15:00+11w5783100 4.6 1022397
18:00+10sw3690100 0.1 1022249
21:00+9wsw3691100 0.1 1023210
18 april, sun
sun1800:00+9wsw2391100 0.0 102289
03:00+9ene1189100 0.1 102115
06:00+9e2392100 0.1 1021116
09:00+9se2592100 1.6 1020284
12:00+10e4691100 0.6 1020340
15:00+11e4793100 2.7 1018383
18:00+11e3695100 2.9 1019254
21:00+10e3498100 4.4 1019107
19 april, mon
mon1900:00+11se3795100 0.0 1018170
03:00+11ese3796100 0.0 1017188
06:00+11se4795100 0.0 1016150
09:00+15ssw3687100 0.7 1016332
12:00+16wsw1283100 0.6 1016405
15:00+15ese3590100 1.0 1015136
18:00+15sse4790100 0.4 1015171
21:00+14ese41092100 0.5 1014260
20 april, tue
tue2000:00+14se61682100 0.4 1012377
03:00+13se81776100 0.4 1009429
06:00+12ese102076100 0.1 1006488
09:00+15se112270100 0.1 1004609
12:00+19se61265100 0.0 1005723
15:00+17s61284100 1.9 1008360
18:00+15wnw4882100 3.1 1011219
21:00+13n1192100 4.2 101425
21 april, wed
wed2100:00+11ssw2694100 4.5 1016566
03:00+9w2489100 4.6 101870
06:00+9sw239061 0.0 1019117
09:00+12w2375100 0.0 1020642
12:00+11ssw3382100 0.3 1021351
15:00+12sw3378100 0.9 1021278
18:00+10se2388100 0.9 1021137
21:00+10sse3592100 1.2 1022154